AirNav   Everest Fuels
 
 1069 users online  

0MO9 Emerson Heliport
Ferguson, Missouri, USA

GOING TO FERGUSON?


FAA INFORMATION EFFECTIVE 21 MAY 2020

Location

FAA Identifier: 0MO9
Lat/Long: 38-43-46.1820N 090-16-42.4060W
38-43.769700N 090-16.706767W
38.7294950,-90.2784461
(estimated)
Elevation: 575 ft. / 175 m (estimated)
Variation: 02E (1985)
From city: 1 mile N of FERGUSON, MO
Time zone: UTC -5 (UTC -6 during Standard Time)
Zip code: 63121

Heliport Operations

Heliport use: Private use. Permission required prior to landing
Activation date: 05/1991
Control tower: no
ARTCC: KANSAS CITY CENTER
FSS: SAINT LOUIS FLIGHT SERVICE STATION
Attendance: UNATNDD
Wind indicator: yes
Segmented circle: no
Lights: FOR PERIMETER LGTS CALL 314-553-1301.

Heliport Communications

WX ASOS at STL (4 nm W): 125.025 (314-890-4790)
WX ASOS at CPS (11 nm SE): PHONE 618-332-0001
WX ASOS at SET (14 nm NW): 118.075 (636-250-4590)
WX AWOS-3 at ALN (15 nm NE): 128.0 (618-259-7231)
WX ASOS at SUS (18 nm W): 134.8 (314-890-7255)

Nearby radio navigation aids

VOR radial/distance  VOR name  Freq  Var
STLr129/12.4ST LOUIS VORTAC117.4001E
TOYr264/16.9TROY VORTAC116.0004E
FTZr081/32.5FORISTELL VORTAC110.8005E

 
NDB name  Hdg/Dist  Freq  Var  ID
EAVES077/13.022701WFZ ..-. --..
CIVIC MEMORIAL228/14.326301WCVM -.-. ...- --

Heliport Services

Runway Information

Helipad H1

Dimensions: 50 x 50 ft. / 15 x 15 m
Surface: concrete
Runway edge lights: PERI
Operational restrictions: CIRCULAR PAD.
Latitude: 38-43.769700N
Longitude: 090-16.706767W
Elevation: 575.0 ft.
Traffic pattern: leftleft

Heliport Ownership and Management from official FAA records

Ownership: Privately-owned
Owner: EMERSON ELECTRIC CO
18444 EDISON AVE
CHESTERFIELD, MO 63005-3631
Phone (314) 553-2225
Manager: STEVE VON GRUBEN
18444 EDISON AVE
CHESTERFIELD, MO 63005-3631
Phone (314) 553-2225

Additional Remarks

OWNER DESIRES ARPT NOT BE CHARTED.
FOR CD CTC ST LOUIS APCH AT 314-890-1018.

Instrument Procedures

There are no published instrument procedures at 0MO9.

Some nearby airports with instrument procedures:

KSTL - St Louis Lambert International Airport (4 nm W)
1H0 - Creve Coeur Airport (11 nm W)
KCPS - St Louis Downtown Airport (11 nm SE)
KSET - St Charles County Smartt Airport (14 nm NW)
KALN - St Louis Regional Airport (15 nm NE)
KSUS - Spirit of St Louis Airport (18 nm W)
 
Loc | Ops | Rwys | IFR | FBO | Links
Com | Nav | Svcs | Stats | Notes
Area around 0MO9 (Emerson Heliport)
 
Road maps at: MapQuest Bing Google
 
Aerial photo
No photo
 
Sectional chart

 
Airport distance calculator
Flying to Emerson Heliport? Find the distance to fly.

From to 0MO9

Sunrise and sunset
Times for 06-Jun-2020
 Local
(UTC-5)
 Zulu
(UTC)
Morning civil twilight05:0610:06
Sunrise05:3710:37
Sunset20:2301:23
Evening civil twilight20:5401:54

Current date and time
Zulu (UTC)  06-Jun-2020 15:29:47
Local (UTC-5)  06-Jun-2020 10:29:47
 
METAR
KSTL 
4nm W 
061451Z 06003KT 10SM FEW140 BKN250 29/22 A3003 RMK AO2 SLP155 ACC N-NE T02940217 50000
KCPS 
11nm SE 
061453Z 05005KT 10SM CLR 29/23 A3002 RMK AO2 SLP160 T02940228 50005
KSET 
14nm NW 
061454Z AUTO 04008KT 10SM CLR 30/23 A3001 RMK AO2 SLP156 T03000228 50002
KALN 
15nm NE 
061450Z 01008KT 10SM SKC 28/24 A3003
KSUS 
18nm W 
061454Z 08006KT 10SM CLR 28/23 A3001 RMK AO2 SLP155 T02830228 50003
TAF
KSTL 
4nm W 
061137Z 0612/0718 08005KT P6SM BKN250
KCPS 
11nm SE 
061137Z 0612/0712 08005KT P6SM BKN250
KSUS 
18nm W 
061137Z 0612/0712 08005KT P6SM SCT250
NOTAMs
Click for the latest NOTAMs
NOTAMs are issued by the DoD/FAA and will open in a separate window not controlled by AirNav.

 

 
 

Would you like to see your business listed on this page?

 If your business provides an interesting product or service to pilots, flight crews, aircraft, or users of the Emerson Heliport, you should consider listing it here.  To start the listing process, click on the button below
 
Add a business
 

Other Pages about Emerson Heliport

Update a link
 
Copyright © AirNav, LLC. All rights reserved. Privacy Policy  Contact